Torna al catalogo

BREEZE-M DEB

TANK

AttivoHEO
NORAD 33279·DEBRIS·🇷🇺 Russia

Lanciato Aug 18, 2008 da Baikonur Cosmodrome

Loading…

Prossimi Passaggi (prossime 24 ore)

TLE

AggiornatoSource: Space-Track

Epoca: Sep 14, 2026, 12:00 UTC

1 33279U 08039B   26257.50047477  .00000134  00000-0  18445-3 0  9993
2 33279  46.0196 303.3185 4829277  76.6104 331.2245  5.74704574375848

Traccia BREEZE-M DEB in tempo reale con AllMySat

Download on the App Store